SCP
-0 0 -0 0 0 -0 -0 0 0 0 0 0 0 0 0 0 0 0 0 0 0 0 0 0 0 0 0 0 -0 0 0 0 0 0 0 0 0 0 0 0 0 0 0
-0 0 0 0 0 0 0 0 -0 0 0 0 0 0 0 0 0 0 0 0 0 0 0 0 -0 -0 -0 -0 0 -0 -0 0 0 0 0 0 0 0 0 0 0 0 0
-0 0 0 0 0 0 0 0 0 -0 0 0 0 0 0 -0 -0 0 0 0 0 0 -0 -0 -0 -0 -0 -0 -0 -0 -0 -0 -0 0 0 0 0 0 0 0 0 0 0
0 0 0 0 0 -0 0 -0 0 0 0 0 -0 0 -0 -0 -0 -0 -0 -0 -0 -0 0 -0 -0 0 -0 -0 -0 -0 -0 -0 -0 -0 0 0 0 0 0 0 0 0 0
0 0 0 0 0 0 0 -0 -0 0 0 0 0 0 0 0 0 0 -0 -0 -0 0 0 -0 -0 0 -0 -0 -0 -0 -0 -0 -0 -0 0 0 0 0 0 0 0 0 0
0 0 0 0 0 0 0 0 0 0 0 0 0 0 0 0 0 0 0 -0 -0 -0 0 0 -0 -0 -0 -0 -0 -0 -0 -0 -0 -0 0 0 0 -0 -0 0 0 0 0
0 0 0 0 0 0 0 0 0 0 0 0 0 0 0 0 0 0 0 0 0 0 -0 -0 -0 -0 -0 -0 -0 -0 -0 -0 -0 -0 -0 0 0 -0 0 -0 -0 0 0
0 0 0 0 0 0 0 0 0 0 0 0 0 0 0 0 0 0 0 0 0 0 -0 -0 -0 -0 -0 -0 -0 -0 -0 -0 -0 -0 -0 0 -0 -0 -0 -0 -0 -0 -0
0 0 0 0 0 0 0 0 0 0 0 0 0 0 0 0 0 0 0 0 0 0 0 0 -0 -0 -0 -0 -0 -0 -0 -0 0 0 0 -0 -0 -0 -0 -0 -0 -0 -0
0 0 0 0 0 0 0 0 0 0 0 0 0 0 0 0 -0 0 0 0 0 0 0 0 0 0 0 -0 -0 -0 0 -0 -0 0 0 -0 0 -0 0 0 -0 -0 -0
0 0 0 0 0 0 0 0 0 0 0 0 0 -0 0 0 0 0 0 0 0 0 0 0 0 0 0 0 0 0 0 -0 -0 -0 -0 -0 0 0 0 0 0 0 0
0 0 0 0 0 0 0 0 0 0 0 0 0 0 0 0 0 0 0 0 0 0 0 0 0 0 0 0 0 0 0 0 -0 -0 -0 -0 0 0 0 0 0 0 0
0 0 0 0 0 0 0 0 0 0 0 0 0 0 0 0 0 0 0 0 0 0 0 0 0 0 0 0 0 0 0 0 0 0 -0 0 -0 -0 -0 0 0 0 0
-0 0 0 0 0 0 0 0 0 0 0 0 0 0 0 0 0 0 0 0 0 0 0 0 0 0 0 0 0 0 0 0 0 0 0 0 0 0 0 0 0 0 0
-0 0 0 0 0 0 0 0 0 0 0 0 0 0 0 0 0 0 0 0 0 0 0 0 0 0 0 0 0 0 0 0 0 0 0 0 0 0 0 0 0 0 0
-0 0 0 0 0 0 0 0 0 0 0 0 0 0 0 0 0 0 0 0 0 0 0 0 0 0 0 0 0 0 0 0 0 0 0 0 0 0 0 0 0 0 0
-0 0 0 0 0 0 0 0 0 0 0 0 0 0 0 0 0 0 0 0 0 0 0 0 0 0 0 0 0 0 0 0 0 0 0 0 0 0 0 0 0 0 0
-0 -0 0 0 0 0 0 0 0 0 0 0 0 0 0 0 0 0 0 0 0 0 0 0 0 0 0 0 0 0 0 0 0 0 0 0 0 0 0 0 0 -0 -0
-0 -0 -0 -0 0 0 0 0 0 0 0 0 0 0 0 0 0 0 0 0 0 0 0 0 0 0 0 0 0 0 0 0 0 0 0 0 0 0 0 0 0 0 -0
-0 -0 -0 0 0 0 0 0 0 0 0 0 0 0 0 0 0 0 0 0 0 0 0 0 0 0 0 0 0 0 0 0 0 0 0 0 0 0 0 0 0 0 0
-0 -0 -0 0 0 0 0 0 0 0 0 0 0 0 0 0 0 0 0 0 0 0 0 0 0 0 0 0 0 0 0 0 0 0 0 0 0 0 0 0 0 0 0
-0 -0 0 0 0 0 0 0 0 0 0 0 0 0 0 0 0 0 0 0 0 0 0 0 0 0 0 0 0 0 0 0 0 0 0 0 0 0 0 0 0 0 0
-0 -0 0 0 0 0 0 0 0 0 0 0 0 0 0 0 0 0 0 0 0 0 0 0 0 0 0 0 0 0 0 0 0 0 0 0 0 0 0 0 0 0 0
-0 0 0 0 0 0 0 0 0 0 0 0 0 0 0 0 0 0 0 0 0 0 0 0 0 0 0 0 0 0 0 0 0 0 0 0 0 0 0 0 0 0 0
0 0 0 0 0 0 0 0 0 0 0 0 0 0 0 0 0 0 0 0 0 0 0 0 0 0 0 0 0 0 0 0 0 0 0 0 0 0 0 0 0 0 0
0 0 0 0 0 0 0 0 0 0 0 0 0 0 0 0 0 0 0 0 0 0 0 0 0 0 0 0 0 0 0 0 0 0 0 0 0 0 0 0 0 0 0
Wind_Speed_500mb
23 13 7 2 15 9 7 9 19 20 20 21 20 19 22 23 24 25 26 27 29 28 29 34 30 32 31 32 30 28 28 29 29 34 40 38 29 32 37 28 29 26 21
20 13 9 7 8 9 10 16 14 9 24 18 21 17 19 19 20 19 22 25 28 28 30 29 30 31 28 30 32 28 27 28 25 25 28 38 38 38 33 30 32 25 25
20 13 12 12 9 7 11 12 7 13 16 18 22 16 19 19 16 20 20 23 26 29 29 29 28 30 28 28 28 30 28 26 17 15 18 36 34 28 30 25 21 21 23
19 12 7 9 6 5 9 4 6 11 14 19 17 17 16 19 22 22 23 25 25 27 30 27 27 29 26 28 28 26 26 23 20 22 31 34 27 25 18 19 18 30 24
18 12 9 8 7 5 10 8 9 10 10 18 14 18 17 21 23 25 24 24 23 25 24 28 28 29 24 24 27 24 19 18 18 19 26 27 19 23 14 18 18 17 20
17 13 13 8 9 6 6 7 8 8 10 13 12 15 17 18 20 21 21 21 22 23 24 28 28 23 25 27 29 25 18 12 10 10 14 20 21 16 18 17 20 19 23
15 13 12 10 8 9 4 6 6 5 7 9 9 10 12 14 15 17 19 21 22 23 22 22 23 23 24 28 30 27 21 15 10 12 16 18 20 18 20 21 19 20 27
12 10 11 11 11 10 5 5 5 4 5 7 8 8 10 13 15 17 18 19 21 21 21 21 21 22 25 29 32 31 27 20 16 14 16 25 23 22 22 20 18 19 21
13 11 11 14 13 10 8 3 2 2 4 5 5 4 5 9 12 14 15 17 18 17 16 17 21 20 22 27 29 31 31 23 18 18 21 26 21 24 23 21 23 17 15
17 15 13 14 12 10 8 3 1 1 0 2 3 3 4 7 8 9 10 12 14 16 17 19 20 19 20 23 25 28 31 28 24 17 16 25 18 18 18 22 16 20 23
23 19 16 14 13 11 10 8 4 4 2 1 1 0 1 2 5 7 9 12 13 12 13 14 16 17 18 20 23 26 28 28 25 20 19 19 19 18 20 14 16 17 17
24 20 17 15 13 12 12 9 7 6 5 3 3 2 2 2 3 4 5 7 9 11 12 14 15 16 16 17 19 22 23 24 24 21 20 15 16 17 18 19 19 13 17
19 22 17 16 14 13 12 11 9 8 8 7 7 7 6 6 6 6 7 7 8 10 12 12 12 13 15 16 18 18 19 19 20 20 18 16 14 13 16 13 16 17 17
23 19 20 19 17 15 14 13 13 11 9 10 10 10 10 11 11 11 11 11 11 11 11 12 12 14 15 16 16 18 18 18 17 17 15 14 12 13 10 12 14 13 12
28 23 21 22 19 19 17 16 14 14 12 13 12 12 13 14 14 14 14 14 15 15 15 16 15 15 16 16 17 17 16 16 16 15 15 13 13 13 10 7 10 11 9
25 26 25 24 22 23 20 19 16 17 16 16 15 16 16 17 17 17 18 18 19 19 19 19 20 20 20 20 21 21 20 18 17 16 14 13 10 11 11 8 9 12 9
22 24 28 25 25 25 21 20 19 18 21 18 19 20 20 20 21 21 21 21 23 24 23 22 22 22 23 24 24 25 25 24 22 21 19 16 15 13 13 12 10 12 11
29 29 27 28 27 24 21 20 21 21 23 21 22 25 24 24 25 25 24 24 27 27 26 26 26 25 27 27 26 27 29 29 27 26 25 22 20 16 14 14 14 15 15
30 30 30 31 28 25 24 25 26 27 26 23 25 26 26 28 29 29 28 28 30 30 30 30 29 29 29 30 31 32 33 33 33 32 28 27 24 21 19 17 17 19 17
32 32 33 34 32 29 31 33 33 32 27 26 25 26 28 30 33 34 33 32 35 34 32 32 33 33 32 33 33 33 32 33 32 32 31 30 27 25 23 20 19 21 22
34 34 33 33 30 34 35 35 35 34 30 29 29 29 31 32 34 37 36 35 38 37 36 37 37 36 35 34 37 36 31 34 29 27 28 28 28 29 27 25 24 24 26
26 26 27 27 30 31 33 30 35 34 35 34 32 33 32 34 34 36 37 36 39 41 39 40 40 40 39 34 35 35 18 25 21 11 16 22 28 30 29 28 27 28 29
29 25 23 21 23 28 28 32 34 37 39 37 31 28 26 31 35 38 39 39 40 44 44 42 43 43 41 41 36 26 14 10 23 32 21 24 28 25 27 30 33 32 34
22 25 25 26 26 27 28 31 32 36 40 34 35 35 38 41 42 43 44 44 45 47 49 46 46 47 46 45 43 42 39 41 23 21 23 23 30 40 35 33 32 39 40
25 25 26 29 31 29 29 30 34 39 39 40 41 43 43 46 49 50 50 49 50 51 50 50 51 52 53 50 51 50 47 47 48 48 46 44 41 40 43 45 45 44 41
24 26 30 31 28 29 29 32 36 39 42 45 43 46 46 48 50 54 55 57 56 56 54 51 52 56 59 59 57 56 56 53 52 50 54 60 60 62 51 49 47 46 44
Wind_Direction_500mb
181 186 183 224 86 78 97 84 65 56 60 63 60 44 44 50 47 44 42 44 46 47 54 46 46 47 47 53 54 50 61 61 67 72 63 56 55 67 52 58 66 62 53
177 173 168 177 160 91 87 73 74 57 82 65 56 39 54 56 53 61 47 46 52 46 54 47 49 47 48 49 59 55 59 58 78 76 74 62 54 63 54 50 69 62 55
169 176 172 122 198 124 110 87 82 74 58 85 61 55 58 59 53 62 57 50 48 48 48 53 53 50 52 48 52 54 52 53 83 71 73 64 53 65 58 63 64 57 62
164 170 161 153 143 131 99 96 48 83 78 86 72 60 60 59 58 59 64 52 52 53 52 55 50 55 50 49 49 53 52 75 76 66 66 68 65 55 59 55 59 55 44
159 165 172 181 131 110 90 64 67 56 62 84 66 65 61 60 56 54 58 56 52 57 57 49 47 56 51 51 45 48 62 86 90 75 73 73 61 49 43 49 53 51 44
159 165 175 164 149 131 99 83 79 61 48 68 68 77 61 62 64 64 60 59 60 48 56 55 50 46 52 43 36 36 43 58 74 71 69 83 59 27 34 58 53 52 46
160 168 173 166 159 129 151 106 102 77 61 56 69 61 65 56 53 63 59 58 52 56 45 51 52 46 40 35 37 33 33 37 46 54 64 56 41 40 43 45 54 52 46
166 175 180 171 180 159 187 128 124 110 82 65 47 50 42 34 30 35 37 42 49 50 44 45 49 40 27 27 30 34 33 38 51 71 71 55 43 47 47 54 50 63 49
184 188 199 191 183 185 194 148 119 81 54 42 40 47 39 29 27 26 30 28 35 38 34 30 27 31 21 21 26 31 37 48 63 82 71 57 50 46 48 48 54 53 57
200 200 201 204 207 203 204 187 191 216 179 52 33 22 5 12 7 18 22 23 17 13 9 8 13 18 17 15 20 29 37 43 48 52 65 51 48 41 43 44 53 49 44
206 207 206 207 211 216 221 233 266 246 253 227 172 99 252 341 358 360 360 352 359 2 1 359 1 5 9 11 14 20 29 36 42 41 42 60 40 37 38 42 48 46 42
211 211 212 211 212 220 229 238 261 284 295 278 293 310 299 300 314 333 334 337 342 344 348 349 351 355 359 357 1 12 17 25 34 36 35 54 73 35 32 30 29 45 31
220 218 221 221 223 229 237 241 256 277 290 293 294 296 301 298 301 306 314 324 327 332 335 335 337 337 339 345 349 354 5 11 20 26 28 37 52 60 35 25 27 25 25
223 223 224 229 230 236 243 250 253 264 280 283 282 288 298 299 300 304 311 314 319 318 319 320 319 322 322 327 333 339 344 351 357 6 15 26 37 35 52 30 29 22 20
224 226 229 234 237 240 246 251 260 266 271 278 285 289 288 291 294 296 299 303 306 308 310 311 309 310 313 315 318 322 325 327 332 338 347 356 10 13 25 46 22 16 29
227 228 232 235 237 241 244 251 256 263 267 274 281 286 289 286 289 291 294 297 297 300 301 305 310 310 310 311 312 313 314 314 313 312 317 325 334 0 10 28 21 10 12
237 233 235 239 238 242 246 249 256 263 268 272 277 280 286 288 288 291 290 291 290 293 296 298 299 301 300 302 304 307 308 307 307 301 299 305 316 329 348 349 344 341 355
232 233 238 240 240 242 248 253 258 263 267 270 272 276 281 286 286 287 288 287 286 289 291 292 293 295 296 295 295 298 300 300 299 296 290 291 298 306 316 336 339 343 339
236 235 236 241 241 244 247 253 259 261 267 273 274 278 281 282 284 286 286 284 283 285 287 289 290 290 291 293 295 295 298 297 295 293 289 279 282 292 299 318 334 337 333
236 235 234 236 238 239 243 249 256 263 269 276 282 283 282 283 283 285 285 285 283 283 285 286 286 288 292 294 294 294 294 293 290 285 284 275 274 282 288 292 312 326 327
232 235 236 238 240 241 246 252 261 270 276 276 280 282 281 283 283 284 285 284 284 284 283 281 285 289 291 296 300 300 300 289 283 280 273 268 267 272 278 284 292 305 318
236 238 237 238 237 243 248 257 263 269 270 273 277 281 284 286 287 286 285 285 283 283 280 280 282 285 288 292 294 306 310 304 282 288 284 268 273 273 277 277 287 296 305
235 235 238 239 235 238 243 251 259 268 277 282 287 288 290 283 283 284 284 282 280 280 280 278 277 278 281 283 282 278 293 264 286 291 276 274 272 274 279 280 282 289 299
228 233 234 230 229 231 236 246 260 272 280 296 292 288 285 282 281 281 282 282 279 277 276 277 275 275 274 276 276 272 269 268 281 292 281 269 271 282 277 274 278 286 291
218 221 220 220 223 229 242 257 269 279 291 295 296 293 289 285 282 279 278 278 277 276 276 274 272 272 271 270 271 273 270 267 264 263 278 285 277 276 277 278 281 282 282
216 219 221 226 228 236 250 264 276 286 292 294 300 297 296 290 284 279 276 275 274 274 276 276 273 269 269 267 266 266 265 264 269 265 268 279 283 282 278 276 276 277 277
Wind_Speed_850mb
23 13 7 2 15 9 7 9 19 20 20 21 20 19 22 23 24 25 26 27 29 28 29 34 30 32 31 32 30 28 28 29 29 34 40 38 29 32 37 28 29 26 21
20 13 9 7 8 9 10 16 14 9 24 18 21 17 19 19 20 19 22 25 28 28 30 29 30 31 28 30 32 28 27 28 25 25 28 38 38 38 33 30 32 25 25
20 13 12 12 9 7 11 12 7 13 16 18 22 16 19 19 16 20 20 23 26 29 29 29 28 30 28 28 28 30 28 26 17 15 18 36 34 28 30 25 21 21 23
19 12 7 9 6 5 9 4 6 11 14 19 17 17 16 19 22 22 23 25 25 27 30 27 27 29 26 28 28 26 26 23 20 22 31 34 27 25 18 19 18 30 24
18 12 9 8 7 5 10 8 9 10 10 18 14 18 17 21 23 25 24 24 23 25 24 28 28 29 24 24 27 24 19 18 18 19 26 27 19 23 14 18 18 17 20
17 13 13 8 9 6 6 7 8 8 10 13 12 15 17 18 20 21 21 21 22 23 24 28 28 23 25 27 29 25 18 12 10 10 14 20 21 16 18 17 20 19 23
15 13 12 10 8 9 4 6 6 5 7 9 9 10 12 14 15 17 19 21 22 23 22 22 23 23 24 28 30 27 21 15 10 12 16 18 20 18 20 21 19 20 27
12 10 11 11 11 10 5 5 5 4 5 7 8 8 10 13 15 17 18 19 21 21 21 21 21 22 25 29 32 31 27 20 16 14 16 25 23 22 22 20 18 19 21
13 11 11 14 13 10 8 3 2 2 4 5 5 4 5 9 12 14 15 17 18 17 16 17 21 20 22 27 29 31 31 23 18 18 21 26 21 24 23 21 23 17 15
17 15 13 14 12 10 8 3 1 1 0 2 3 3 4 7 8 9 10 12 14 16 17 19 20 19 20 23 25 28 31 28 24 17 16 25 18 18 18 22 16 20 23
23 19 16 14 13 11 10 8 4 4 2 1 1 0 1 2 5 7 9 12 13 12 13 14 16 17 18 20 23 26 28 28 25 20 19 19 19 18 20 14 16 17 17
24 20 17 15 13 12 12 9 7 6 5 3 3 2 2 2 3 4 5 7 9 11 12 14 15 16 16 17 19 22 23 24 24 21 20 15 16 17 18 19 19 13 17
19 22 17 16 14 13 12 11 9 8 8 7 7 7 6 6 6 6 7 7 8 10 12 12 12 13 15 16 18 18 19 19 20 20 18 16 14 13 16 13 16 17 17
23 19 20 19 17 15 14 13 13 11 9 10 10 10 10 11 11 11 11 11 11 11 11 12 12 14 15 16 16 18 18 18 17 17 15 14 12 13 10 12 14 13 12
28 23 21 22 19 19 17 16 14 14 12 13 12 12 13 14 14 14 14 14 15 15 15 16 15 15 16 16 17 17 16 16 16 15 15 13 13 13 10 7 10 11 9
25 26 25 24 22 23 20 19 16 17 16 16 15 16 16 17 17 17 18 18 19 19 19 19 20 20 20 20 21 21 20 18 17 16 14 13 10 11 11 8 9 12 9
22 24 28 25 25 25 21 20 19 18 21 18 19 20 20 20 21 21 21 21 23 24 23 22 22 22 23 24 24 25 25 24 22 21 19 16 15 13 13 12 10 12 11
29 29 27 28 27 24 21 20 21 21 23 21 22 25 24 24 25 25 24 24 27 27 26 26 26 25 27 27 26 27 29 29 27 26 25 22 20 16 14 14 14 15 15
30 30 30 31 28 25 24 25 26 27 26 23 25 26 26 28 29 29 28 28 30 30 30 30 29 29 29 30 31 32 33 33 33 32 28 27 24 21 19 17 17 19 17
32 32 33 34 32 29 31 33 33 32 27 26 25 26 28 30 33 34 33 32 35 34 32 32 33 33 32 33 33 33 32 33 32 32 31 30 27 25 23 20 19 21 22
34 34 33 33 30 34 35 35 35 34 30 29 29 29 31 32 34 37 36 35 38 37 36 37 37 36 35 34 37 36 31 34 29 27 28 28 28 29 27 25 24 24 26
26 26 27 27 30 31 33 30 35 34 35 34 32 33 32 34 34 36 37 36 39 41 39 40 40 40 39 34 35 35 18 25 21 11 16 22 28 30 29 28 27 28 29
29 25 23 21 23 28 28 32 34 37 39 37 31 28 26 31 35 38 39 39 40 44 44 42 43 43 41 41 36 26 14 10 23 32 21 24 28 25 27 30 33 32 34
22 25 25 26 26 27 28 31 32 36 40 34 35 35 38 41 42 43 44 44 45 47 49 46 46 47 46 45 43 42 39 41 23 21 23 23 30 40 35 33 32 39 40
25 25 26 29 31 29 29 30 34 39 39 40 41 43 43 46 49 50 50 49 50 51 50 50 51 52 53 50 51 50 47 47 48 48 46 44 41 40 43 45 45 44 41
24 26 30 31 28 29 29 32 36 39 42 45 43 46 46 48 50 54 55 57 56 56 54 51 52 56 59 59 57 56 56 53 52 50 54 60 60 62 51 49 47 46 44
Wind_Direction_850mb
181 186 183 224 86 78 97 84 65 56 60 63 60 44 44 50 47 44 42 44 46 47 54 46 46 47 47 53 54 50 61 61 67 72 63 56 55 67 52 58 66 62 53
177 173 168 177 160 91 87 73 74 57 82 65 56 39 54 56 53 61 47 46 52 46 54 47 49 47 48 49 59 55 59 58 78 76 74 62 54 63 54 50 69 62 55
169 176 172 122 198 124 110 87 82 74 58 85 61 55 58 59 53 62 57 50 48 48 48 53 53 50 52 48 52 54 52 53 83 71 73 64 53 65 58 63 64 57 62
164 170 161 153 143 131 99 96 48 83 78 86 72 60 60 59 58 59 64 52 52 53 52 55 50 55 50 49 49 53 52 75 76 66 66 68 65 55 59 55 59 55 44
159 165 172 181 131 110 90 64 67 56 62 84 66 65 61 60 56 54 58 56 52 57 57 49 47 56 51 51 45 48 62 86 90 75 73 73 61 49 43 49 53 51 44
159 165 175 164 149 131 99 83 79 61 48 68 68 77 61 62 64 64 60 59 60 48 56 55 50 46 52 43 36 36 43 58 74 71 69 83 59 27 34 58 53 52 46
160 168 173 166 159 129 151 106 102 77 61 56 69 61 65 56 53 63 59 58 52 56 45 51 52 46 40 35 37 33 33 37 46 54 64 56 41 40 43 45 54 52 46
166 175 180 171 180 159 187 128 124 110 82 65 47 50 42 34 30 35 37 42 49 50 44 45 49 40 27 27 30 34 33 38 51 71 71 55 43 47 47 54 50 63 49
184 188 199 191 183 185 194 148 119 81 54 42 40 47 39 29 27 26 30 28 35 38 34 30 27 31 21 21 26 31 37 48 63 82 71 57 50 46 48 48 54 53 57
200 200 201 204 207 203 204 187 191 216 179 52 33 22 5 12 7 18 22 23 17 13 9 8 13 18 17 15 20 29 37 43 48 52 65 51 48 41 43 44 53 49 44
206 207 206 207 211 216 221 233 266 246 253 227 172 99 252 341 358 360 360 352 359 2 1 359 1 5 9 11 14 20 29 36 42 41 42 60 40 37 38 42 48 46 42
211 211 212 211 212 220 229 238 261 284 295 278 293 310 299 300 314 333 334 337 342 344 348 349 351 355 359 357 1 12 17 25 34 36 35 54 73 35 32 30 29 45 31
220 218 221 221 223 229 237 241 256 277 290 293 294 296 301 298 301 306 314 324 327 332 335 335 337 337 339 345 349 354 5 11 20 26 28 37 52 60 35 25 27 25 25
223 223 224 229 230 236 243 250 253 264 280 283 282 288 298 299 300 304 311 314 319 318 319 320 319 322 322 327 333 339 344 351 357 6 15 26 37 35 52 30 29 22 20
224 226 229 234 237 240 246 251 260 266 271 278 285 289 288 291 294 296 299 303 306 308 310 311 309 310 313 315 318 322 325 327 332 338 347 356 10 13 25 46 22 16 29
227 228 232 235 237 241 244 251 256 263 267 274 281 286 289 286 289 291 294 297 297 300 301 305 310 310 310 311 312 313 314 314 313 312 317 325 334 0 10 28 21 10 12
237 233 235 239 238 242 246 249 256 263 268 272 277 280 286 288 288 291 290 291 290 293 296 298 299 301 300 302 304 307 308 307 307 301 299 305 316 329 348 349 344 341 355
232 233 238 240 240 242 248 253 258 263 267 270 272 276 281 286 286 287 288 287 286 289 291 292 293 295 296 295 295 298 300 300 299 296 290 291 298 306 316 336 339 343 339
236 235 236 241 241 244 247 253 259 261 267 273 274 278 281 282 284 286 286 284 283 285 287 289 290 290 291 293 295 295 298 297 295 293 289 279 282 292 299 318 334 337 333
236 235 234 236 238 239 243 249 256 263 269 276 282 283 282 283 283 285 285 285 283 283 285 286 286 288 292 294 294 294 294 293 290 285 284 275 274 282 288 292 312 326 327
232 235 236 238 240 241 246 252 261 270 276 276 280 282 281 283 283 284 285 284 284 284 283 281 285 289 291 296 300 300 300 289 283 280 273 268 267 272 278 284 292 305 318
236 238 237 238 237 243 248 257 263 269 270 273 277 281 284 286 287 286 285 285 283 283 280 280 282 285 288 292 294 306 310 304 282 288 284 268 273 273 277 277 287 296 305
235 235 238 239 235 238 243 251 259 268 277 282 287 288 290 283 283 284 284 282 280 280 280 278 277 278 281 283 282 278 293 264 286 291 276 274 272 274 279 280 282 289 299
228 233 234 230 229 231 236 246 260 272 280 296 292 288 285 282 281 281 282 282 279 277 276 277 275 275 274 276 276 272 269 268 281 292 281 269 271 282 277 274 278 286 291
218 221 220 220 223 229 242 257 269 279 291 295 296 293 289 285 282 279 278 278 277 276 276 274 272 272 271 270 271 273 270 267 264 263 278 285 277 276 277 278 281 282 282
216 219 221 226 228 236 250 264 276 286 292 294 300 297 296 290 284 279 276 275 274 274 276 276 273 269 269 267 266 266 265 264 269 265 268 279 283 282 278 276 276 277 277